Time,TemperatureF,DewpointF,PressureIn,WindDirection,WindDirectionDegrees,WindSpeedMPH,WindSpeedGustMPH,Humidity,HourlyPrecipIn,Conditions,Clouds,dailyrainin,SoftwareType,DateUTC
2013-06-02 00:02:00,58.0,51.5,30.07,NNW,332,3.0,3.0,79,0.00,,,0.00,Wunderground v.1.15,2013-06-02 05:02:00,
2013-06-02 00:03:00,57.2,51.8,30.07,NW,315,2.0,-999.0,82,0.00,,,0.00,Wunderground v.1.15,2013-06-02 05:03:00,
2013-06-02 00:08:00,57.2,51.8,30.07,NW,315,2.0,-999.0,82,0.00,,,0.00,Wunderground v.1.15,2013-06-02 05:08:00,
2013-06-02 00:12:00,57.4,51.6,30.07,NW,312,2.0,25.0,81,0.00,,,0.00,Wunderground v.1.15,2013-06-02 05:12:00,
2013-06-02 00:13:00,57.2,51.8,30.07,NW,315,2.0,-999.0,82,0.00,,,0.00,Wunderground v.1.15,2013-06-02 05:13:00,
2013-06-02 00:18:00,57.2,51.8,30.07,NW,315,2.0,-999.0,82,0.00,,,0.00,Wunderground v.1.15,2013-06-02 05:18:00,
2013-06-02 00:22:00,56.7,51.6,30.07,NW,304,3.0,3.0,83,0.00,,,0.00,Wunderground v.1.15,2013-06-02 05:22:00,
2013-06-02 00:23:00,56.3,51.5,30.07,NW,315,3.0,-999.0,84,0.00,,,0.00,Wunderground v.1.15,2013-06-02 05:23:00,
2013-06-02 00:28:00,56.3,51.5,30.07,NW,315,3.0,-999.0,84,0.00,,,0.00,Wunderground v.1.15,2013-06-02 05:28:00,
2013-06-02 00:32:00,56.2,51.4,30.07,NW,316,3.0,25.0,84,0.00,,,0.00,Wunderground v.1.15,2013-06-02 05:32:00,
2013-06-02 00:33:00,56.3,51.5,30.07,NW,315,3.0,-999.0,84,0.00,,,0.00,Wunderground v.1.15,2013-06-02 05:33:00,
2013-06-02 00:38:00,55.9,51.1,30.07,NW,315,4.0,-999.0,84,0.00,,,0.00,Wunderground v.1.15,2013-06-02 05:38:00,
2013-06-02 00:42:00,56.0,51.2,30.07,NNW,331,4.0,25.0,84,0.00,,,0.00,Wunderground v.1.15,2013-06-02 05:42:00,
2013-06-02 00:43:00,55.9,51.1,30.07,NW,315,4.0,-999.0,84,0.00,,,0.00,Wunderground v.1.15,2013-06-02 05:43:00,
2013-06-02 00:48:00,55.9,51.1,30.07,NW,315,4.0,-999.0,84,0.00,,,0.00,Wunderground v.1.15,2013-06-02 05:48:00,
2013-06-02 00:52:00,55.5,50.7,30.07,WNW,297,4.0,4.0,84,0.00,,,0.00,Wunderground v.1.15,2013-06-02 05:52:00,
2013-06-02 00:53:00,55.1,50.7,30.08,NW,315,4.0,-999.0,85,0.00,,,0.00,Wunderground v.1.15,2013-06-02 05:53:00,
2013-06-02 00:58:00,55.1,50.7,30.08,NW,315,4.0,-999.0,85,0.00,,,0.00,Wunderground v.1.15,2013-06-02 05:58:00,
2013-06-02 01:02:00,55.0,50.6,30.08,NW,312,4.0,4.0,85,0.00,,,0.00,Wunderground v.1.15,2013-06-02 06:02:00,
2013-06-02 01:03:00,55.1,50.7,30.08,NW,315,4.0,-999.0,85,0.00,,,0.00,Wunderground v.1.15,2013-06-02 06:03:00,
2013-06-02 01:08:00,54.6,50.2,30.08,NW,315,3.0,-999.0,85,0.00,,,0.00,Wunderground v.1.15,2013-06-02 06:08:00,
2013-06-02 01:12:00,54.7,50.3,30.07,NW,311,3.0,25.0,85,0.00,,,0.00,Wunderground v.1.15,2013-06-02 06:12:00,
2013-06-02 01:13:00,54.6,50.2,30.08,NW,315,3.0,-999.0,85,0.00,,,0.00,Wunderground v.1.15,2013-06-02 06:13:00,
2013-06-02 01:18:00,54.6,50.2,30.08,NW,315,3.0,-999.0,85,0.00,,,0.00,Wunderground v.1.15,2013-06-02 06:18:00,
2013-06-02 01:22:00,54.5,50.1,30.08,NNW,328,3.0,3.0,85,0.00,,,0.00,Wunderground v.1.15,2013-06-02 06:22:00,
2013-06-02 01:23:00,54.1,50.0,30.08,NW,315,3.0,-999.0,86,0.00,,,0.00,Wunderground v.1.15,2013-06-02 06:23:00,
2013-06-02 01:28:00,54.1,50.0,30.08,NW,315,3.0,-999.0,86,0.00,,,0.00,Wunderground v.1.15,2013-06-02 06:28:00,
2013-06-02 01:32:00,54.1,50.0,30.08,WNW,299,3.0,25.0,86,0.00,,,0.00,Wunderground v.1.15,2013-06-02 06:32:00,
2013-06-02 01:33:00,54.1,50.0,30.08,NW,315,3.0,-999.0,86,0.00,,,0.00,Wunderground v.1.15,2013-06-02 06:33:00,
2013-06-02 01:38:00,53.7,49.6,30.08,NW,315,3.0,-999.0,86,0.00,,,0.00,Wunderground v.1.15,2013-06-02 06:38:00,
2013-06-02 01:42:00,53.8,49.7,30.08,WNW,299,3.0,25.0,86,0.00,,,0.00,Wunderground v.1.15,2013-06-02 06:42:00,
2013-06-02 01:43:00,53.7,49.6,30.08,NW,315,3.0,-999.0,86,0.00,,,0.00,Wunderground v.1.15,2013-06-02 06:43:00,
2013-06-02 01:48:00,53.7,49.6,30.08,NW,315,3.0,-999.0,86,0.00,,,0.00,Wunderground v.1.15,2013-06-02 06:48:00,
2013-06-02 01:51:00,53.8,49.7,30.08,NW,306,4.0,25.0,86,0.00,,,0.00,Wunderground v.1.15,2013-06-02 06:51:00,
2013-06-02 01:53:00,54.2,49.5,30.08,NW,315,5.0,-999.0,84,0.00,,,0.00,Wunderground v.1.15,2013-06-02 06:53:00,
2013-06-02 01:58:00,54.2,49.5,30.08,NW,315,5.0,-999.0,84,0.00,,,0.00,Wunderground v.1.15,2013-06-02 06:58:00,
2013-06-02 02:01:00,54.3,49.6,30.08,NW,316,5.0,25.0,84,0.00,,,0.00,Wunderground v.1.15,2013-06-02 07:01:00,
2013-06-02 02:03:00,54.2,49.5,30.08,NW,315,5.0,-999.0,84,0.00,,,0.00,Wunderground v.1.15,2013-06-02 07:03:00,
2013-06-02 02:08:00,55.1,49.4,30.08,NW,315,5.0,-999.0,81,0.00,,,0.00,Wunderground v.1.15,2013-06-02 07:08:00,
2013-06-02 02:11:00,55.0,49.3,30.08,WNW,293,5.0,25.0,81,0.00,,,0.00,Wunderground v.1.15,2013-06-02 07:11:00,
2013-06-02 02:13:00,55.1,49.4,30.08,NW,315,5.0,-999.0,81,0.00,,,0.00,Wunderground v.1.15,2013-06-02 07:13:00,
2013-06-02 02:18:00,55.1,49.4,30.08,NW,315,5.0,-999.0,81,0.00,,,0.00,Wunderground v.1.15,2013-06-02 07:18:00,
2013-06-02 02:22:00,54.9,49.5,30.08,NW,304,5.0,25.0,82,0.00,,,0.00,Wunderground v.1.15,2013-06-02 07:22:00,
2013-06-02 02:23:00,54.3,49.2,30.08,NW,315,5.0,-999.0,83,0.00,,,0.00,Wunderground v.1.15,2013-06-02 07:23:00,
2013-06-02 02:28:00,54.3,49.2,30.08,NW,315,5.0,-999.0,83,0.00,,,0.00,Wunderground v.1.15,2013-06-02 07:28:00,
2013-06-02 02:32:00,54.2,49.1,30.08,WNW,300,6.0,25.0,83,0.00,,,0.00,Wunderground v.1.15,2013-06-02 07:32:00,
2013-06-02 02:33:00,54.3,49.2,30.08,NW,315,5.0,-999.0,83,0.00,,,0.00,Wunderground v.1.15,2013-06-02 07:33:00,
2013-06-02 02:38:00,54.8,48.7,30.08,NW,315,7.0,-999.0,80,0.00,,,0.00,Wunderground v.1.15,2013-06-02 07:38:00,
2013-06-02 02:42:00,54.6,48.9,30.08,NW,304,7.0,7.0,81,0.00,,,0.00,Wunderground v.1.15,2013-06-02 07:42:00,
2013-06-02 02:43:00,54.8,48.7,30.08,NW,315,7.0,-999.0,80,0.00,,,0.00,Wunderground v.1.15,2013-06-02 07:43:00,
2013-06-02 02:48:00,54.8,48.7,30.08,NW,315,7.0,-999.0,80,0.00,,,0.00,Wunderground v.1.15,2013-06-02 07:48:00,
2013-06-02 02:52:00,54.9,48.8,30.08,NNW,345,7.0,25.0,80,0.00,,,0.00,Wunderground v.1.15,2013-06-02 07:52:00,
2013-06-02 02:53:00,54.7,49.0,30.08,NW,315,6.0,-999.0,81,0.00,,,0.00,Wunderground v.1.15,2013-06-02 07:53:00,
2013-06-02 02:58:00,54.7,49.0,30.08,NW,315,6.0,-999.0,81,0.00,,,0.00,Wunderground v.1.15,2013-06-02 07:58:00,
2013-06-02 03:02:00,54.6,48.9,30.08,NE,44,6.0,25.0,81,0.00,,,0.00,Wunderground v.1.15,2013-06-02 08:02:00,
2013-06-02 03:03:00,54.7,49.0,30.08,NW,315,6.0,-999.0,81,0.00,,,0.00,Wunderground v.1.15,2013-06-02 08:03:00,
2013-06-02 03:08:00,54.3,48.9,30.09,NW,315,6.0,-999.0,82,0.00,,,0.00,Wunderground v.1.15,2013-06-02 08:08:00,
2013-06-02 03:12:00,54.3,48.6,30.09,WNW,300,6.0,6.0,81,0.00,,,0.00,Wunderground v.1.15,2013-06-02 08:12:00,
2013-06-02 03:13:00,54.3,48.9,30.09,NW,315,6.0,-999.0,82,0.00,,,0.00,Wunderground v.1.15,2013-06-02 08:13:00,
2013-06-02 03:18:00,54.3,48.9,30.09,NW,315,6.0,-999.0,82,0.00,,,0.00,Wunderground v.1.15,2013-06-02 08:18:00,
2013-06-02 03:22:00,54.2,48.5,30.09,North,359,6.0,25.0,81,0.00,,,0.00,Wunderground v.1.15,2013-06-02 08:22:00,
2013-06-02 03:23:00,54.0,48.6,30.10,NW,315,7.0,-999.0,82,0.00,,,0.00,Wunderground v.1.15,2013-06-02 08:23:00,
2013-06-02 03:28:00,54.0,48.6,30.10,NW,315,7.0,-999.0,82,0.00,,,0.00,Wunderground v.1.15,2013-06-02 08:28:00,
2013-06-02 03:32:00,54.0,48.6,30.09,NW,312,6.0,6.0,82,0.00,,,0.00,Wunderground v.1.15,2013-06-02 08:32:00,
2013-06-02 03:33:00,54.0,48.6,30.10,NW,315,7.0,-999.0,82,0.00,,,0.00,Wunderground v.1.15,2013-06-02 08:33:00,
2013-06-02 03:38:00,53.5,48.5,30.07,NNW,338,8.0,-999.0,83,0.00,,,0.00,Wunderground v.1.15,2013-06-02 08:38:00,
2013-06-02 03:42:00,53.7,48.7,30.08,NNE,23,8.0,25.0,83,0.00,,,0.00,Wunderground v.1.15,2013-06-02 08:42:00,
2013-06-02 03:43:00,53.5,48.5,30.07,NNW,338,8.0,-999.0,83,0.00,,,0.00,Wunderground v.1.15,2013-06-02 08:43:00,
2013-06-02 03:48:00,53.5,48.5,30.07,NNW,338,8.0,-999.0,83,0.00,,,0.00,Wunderground v.1.15,2013-06-02 08:48:00,
2013-06-02 03:52:00,53.2,48.2,30.08,NW,319,8.0,8.0,83,0.00,,,0.00,Wunderground v.1.15,2013-06-02 08:52:00,
2013-06-02 03:53:00,53.2,48.2,30.08,NNW,338,7.0,-999.0,83,0.00,,,0.00,Wunderground v.1.15,2013-06-02 08:53:00,
2013-06-02 03:58:00,53.2,48.2,30.08,NNW,338,7.0,-999.0,83,0.00,,,0.00,Wunderground v.1.15,2013-06-02 08:58:00,
2013-06-02 04:02:00,53.2,48.2,30.08,NNW,345,6.0,25.0,83,0.00,,,0.00,Wunderground v.1.15,2013-06-02 09:02:00,
2013-06-02 04:03:00,53.2,48.2,30.08,NNW,338,7.0,-999.0,83,0.00,,,0.00,Wunderground v.1.15,2013-06-02 09:03:00,
2013-06-02 04:08:00,52.8,48.1,30.08,NNW,338,6.0,-999.0,84,0.00,,,0.00,Wunderground v.1.15,2013-06-02 09:08:00,
2013-06-02 04:12:00,52.8,48.1,30.09,NW,319,6.0,6.0,84,0.00,,,0.00,Wunderground v.1.15,2013-06-02 09:12:00,
2013-06-02 04:13:00,52.8,48.1,30.08,NNW,338,6.0,-999.0,84,0.00,,,0.00,Wunderground v.1.15,2013-06-02 09:13:00,
2013-06-02 04:18:00,52.8,48.1,30.08,NNW,338,6.0,-999.0,84,0.00,,,0.00,Wunderground v.1.15,2013-06-02 09:18:00,
2013-06-02 04:22:00,52.8,48.1,30.09,NW,311,6.0,6.0,84,0.00,,,0.00,Wunderground v.1.15,2013-06-02 09:22:00,
2013-06-02 04:23:00,52.2,48.1,30.09,NW,315,5.0,-999.0,86,0.00,,,0.00,Wunderground v.1.15,2013-06-02 09:23:00,
2013-06-02 04:32:00,52.1,48.0,30.09,NW,322,5.0,25.0,86,0.00,,,0.00,Wunderground v.1.15,2013-06-02 09:32:00,
2013-06-02 04:33:00,52.2,48.1,30.09,NW,315,5.0,-999.0,86,0.00,,,0.00,Wunderground v.1.15,2013-06-02 09:33:00,
2013-06-02 04:38:00,52.0,47.6,30.10,NW,315,6.0,-999.0,85,0.00,,,0.00,Wunderground v.1.15,2013-06-02 09:38:00,
2013-06-02 04:42:00,52.0,47.9,30.09,NW,316,6.0,6.0,86,0.00,,,0.00,Wunderground v.1.15,2013-06-02 09:42:00,
2013-06-02 04:43:00,52.0,47.6,30.10,NW,315,6.0,-999.0,85,0.00,,,0.00,Wunderground v.1.15,2013-06-02 09:43:00,
2013-06-02 04:48:00,52.0,47.6,30.10,NW,315,6.0,-999.0,85,0.00,,,0.00,Wunderground v.1.15,2013-06-02 09:48:00,
2013-06-02 04:52:00,52.4,47.7,30.11,North,353,6.0,25.0,84,0.00,,,0.00,Wunderground v.1.15,2013-06-02 09:52:00,
2013-06-02 04:53:00,52.4,47.7,30.11,NNW,338,6.0,-999.0,84,0.00,,,0.00,Wunderground v.1.15,2013-06-02 09:53:00,
2013-06-02 04:58:00,52.4,47.7,30.11,NNW,338,6.0,-999.0,84,0.00,,,0.00,Wunderground v.1.15,2013-06-02 09:58:00,
2013-06-02 05:01:00,52.4,47.4,30.11,NNE,26,6.0,25.0,83,0.00,,,0.00,Wunderground v.1.15,2013-06-02 10:01:00,
2013-06-02 05:03:00,52.4,47.7,30.11,NNW,338,6.0,-999.0,84,0.00,,,0.00,Wunderground v.1.15,2013-06-02 10:03:00,
2013-06-02 05:08:00,52.1,47.4,30.11,NNW,338,6.0,-999.0,84,0.00,,,0.00,Wunderground v.1.15,2013-06-02 10:08:00,
2013-06-02 05:11:00,52.1,47.4,30.11,NW,322,6.0,25.0,84,0.00,,,0.00,Wunderground v.1.15,2013-06-02 10:11:00,
2013-06-02 05:13:00,52.1,47.4,30.11,NNW,338,6.0,-999.0,84,0.00,,,0.00,Wunderground v.1.15,2013-06-02 10:13:00,
2013-06-02 05:18:00,52.1,47.4,30.11,NNW,338,6.0,-999.0,84,0.00,,,0.00,Wunderground v.1.15,2013-06-02 10:18:00,
2013-06-02 05:21:00,51.8,47.4,30.11,NW,315,6.0,25.0,85,0.00,,,0.00,Wunderground v.1.15,2013-06-02 10:21:00,
2013-06-02 05:23:00,51.7,47.3,30.11,NNW,338,6.0,-999.0,85,0.00,,,0.00,Wunderground v.1.15,2013-06-02 10:23:00,
2013-06-02 05:28:00,51.7,47.3,30.11,NNW,338,6.0,-999.0,85,0.00,,,0.00,Wunderground v.1.15,2013-06-02 10:28:00,
2013-06-02 05:31:00,51.7,47.3,30.12,WNW,290,6.0,25.0,85,0.00,,,0.00,Wunderground v.1.15,2013-06-02 10:31:00,
2013-06-02 05:33:00,51.7,47.3,30.11,NNW,338,6.0,-999.0,85,0.00,,,0.00,Wunderground v.1.15,2013-06-02 10:33:00,
2013-06-02 05:38:00,51.4,47.0,30.13,NW,315,5.0,-999.0,85,0.00,,,0.00,Wunderground v.1.15,2013-06-02 10:38:00,
2013-06-02 05:41:00,51.4,47.0,30.13,NW,311,5.0,25.0,85,0.00,,,0.00,Wunderground v.1.15,2013-06-02 10:41:00,
2013-06-02 05:43:00,51.4,47.0,30.13,NW,315,5.0,-999.0,85,0.00,,,0.00,Wunderground v.1.15,2013-06-02 10:43:00,
2013-06-02 05:48:00,51.4,47.0,30.13,NW,315,5.0,-999.0,85,0.00,,,0.00,Wunderground v.1.15,2013-06-02 10:48:00,
2013-06-02 05:51:00,51.2,47.2,30.13,NNW,338,4.0,4.0,86,0.00,,,0.00,Wunderground v.1.15,2013-06-02 10:51:00,
2013-06-02 05:53:00,50.9,47.2,30.13,NW,315,4.0,-999.0,87,0.00,,,0.00,Wunderground v.1.15,2013-06-02 10:53:00,
2013-06-02 05:58:00,50.9,47.2,30.13,NW,315,4.0,-999.0,87,0.00,,,0.00,Wunderground v.1.15,2013-06-02 10:58:00,
2013-06-02 06:01:00,50.9,47.2,30.13,WNW,291,4.0,25.0,87,0.00,,,0.00,Wunderground v.1.15,2013-06-02 11:01:00,
2013-06-02 06:03:00,50.9,47.2,30.13,NW,315,4.0,-999.0,87,0.00,,,0.00,Wunderground v.1.15,2013-06-02 11:03:00,
2013-06-02 06:08:00,50.6,47.2,30.13,NNW,338,5.0,-999.0,88,0.00,,,0.00,Wunderground v.1.15,2013-06-02 11:08:00,
2013-06-02 06:12:00,50.7,47.0,30.13,NNW,330,5.0,5.0,87,0.00,,,0.00,Wunderground v.1.15,2013-06-02 11:12:00,
2013-06-02 06:13:00,50.6,47.2,30.13,NNW,338,5.0,-999.0,88,0.00,,,0.00,Wunderground v.1.15,2013-06-02 11:13:00,
2013-06-02 06:18:00,50.6,47.2,30.13,NNW,338,5.0,-999.0,88,0.00,,,0.00,Wunderground v.1.15,2013-06-02 11:18:00,
2013-06-02 06:22:00,50.5,47.1,30.13,NNW,345,5.0,25.0,88,0.00,,,0.00,Wunderground v.1.15,2013-06-02 11:22:00,
2013-06-02 06:23:00,50.5,47.1,30.12,NNW,338,5.0,-999.0,88,0.00,,,0.00,Wunderground v.1.15,2013-06-02 11:23:00,
2013-06-02 06:28:00,50.5,47.1,30.12,NNW,338,5.0,-999.0,88,0.00,,,0.00,Wunderground v.1.15,2013-06-02 11:28:00,
2013-06-02 06:32:00,50.6,47.2,30.12,NW,326,5.0,25.0,88,0.00,,,0.00,Wunderground v.1.15,2013-06-02 11:32:00,
2013-06-02 06:33:00,50.5,47.1,30.12,NNW,338,5.0,-999.0,88,0.00,,,0.00,Wunderground v.1.15,2013-06-02 11:33:00,
2013-06-02 06:38:00,51.2,47.5,30.12,North,0,7.0,-999.0,87,0.00,,,0.00,Wunderground v.1.15,2013-06-02 11:38:00,
2013-06-02 06:42:00,51.0,47.3,30.12,NE,36,7.0,25.0,87,0.00,,,0.00,Wunderground v.1.15,2013-06-02 11:42:00,
2013-06-02 06:43:00,51.2,47.5,30.12,North,0,7.0,-999.0,87,0.00,,,0.00,Wunderground v.1.15,2013-06-02 11:43:00,
2013-06-02 06:48:00,51.2,47.5,30.12,North,0,7.0,-999.0,87,0.00,,,0.00,Wunderground v.1.15,2013-06-02 11:48:00,
2013-06-02 06:52:00,51.7,47.6,30.12,NW,319,8.0,8.0,86,0.00,,,0.00,Wunderground v.1.15,2013-06-02 11:52:00,
2013-06-02 06:53:00,52.2,47.5,30.13,NNW,338,7.0,-999.0,84,0.00,,,0.00,Wunderground v.1.15,2013-06-02 11:53:00,
2013-06-02 06:58:00,52.2,47.5,30.13,NNW,338,7.0,-999.0,84,0.00,,,0.00,Wunderground v.1.15,2013-06-02 11:58:00,
2013-06-02 07:02:00,52.4,47.7,30.13,NNE,25,7.0,7.0,84,0.00,,,0.00,Wunderground v.1.15,2013-06-02 12:02:00,
2013-06-02 07:03:00,52.2,47.5,30.13,NNW,338,7.0,-999.0,84,0.00,,,0.00,Wunderground v.1.15,2013-06-02 12:03:00,
2013-06-02 07:08:00,52.8,47.5,30.13,NNW,338,9.0,-999.0,82,0.00,,,0.00,Wunderground v.1.15,2013-06-02 12:08:00,
2013-06-02 07:12:00,52.7,47.7,30.13,NNW,330,9.0,25.0,83,0.00,,,0.00,Wunderground v.1.15,2013-06-02 12:12:00,
2013-06-02 07:13:00,52.8,47.5,30.13,NNW,338,9.0,-999.0,82,0.00,,,0.00,Wunderground v.1.15,2013-06-02 12:13:00,
2013-06-02 07:18:00,52.8,47.5,30.13,NNW,338,9.0,-999.0,82,0.00,,,0.00,Wunderground v.1.15,2013-06-02 12:18:00,
2013-06-02 07:22:00,53.0,47.7,30.14,North,352,8.0,25.0,82,0.00,,,0.00,Wunderground v.1.15,2013-06-02 12:22:00,
2013-06-02 07:23:00,53.4,48.0,30.14,NNW,338,7.0,-999.0,82,0.00,,,0.00,Wunderground v.1.15,2013-06-02 12:23:00,
2013-06-02 07:28:00,53.4,48.0,30.14,NNW,338,7.0,-999.0,82,0.00,,,0.00,Wunderground v.1.15,2013-06-02 12:28:00,
2013-06-02 07:32:00,53.5,48.1,30.14,WNW,295,7.0,7.0,82,0.00,,,0.00,Wunderground v.1.15,2013-06-02 12:32:00,
2013-06-02 07:33:00,53.4,48.0,30.14,NNW,338,7.0,-999.0,82,0.00,,,0.00,Wunderground v.1.15,2013-06-02 12:33:00,
2013-06-02 07:38:00,53.8,48.1,30.15,NW,315,7.0,-999.0,81,0.00,,,0.00,Wunderground v.1.15,2013-06-02 12:38:00,
2013-06-02 07:42:00,53.8,48.1,30.15,NNW,343,7.0,25.0,81,0.00,,,0.00,Wunderground v.1.15,2013-06-02 12:42:00,
2013-06-02 07:43:00,53.8,48.1,30.15,NW,315,7.0,-999.0,81,0.00,,,0.00,Wunderground v.1.15,2013-06-02 12:43:00,
2013-06-02 07:48:00,53.8,48.1,30.15,NW,315,7.0,-999.0,81,0.00,,,0.00,Wunderground v.1.15,2013-06-02 12:48:00,
2013-06-02 07:52:00,54.1,48.4,30.15,NNE,22,6.0,25.0,81,0.00,,,0.00,Wunderground v.1.15,2013-06-02 12:52:00,
2013-06-02 07:53:00,54.3,47.9,30.15,NW,315,8.0,-999.0,79,0.00,,,0.00,Wunderground v.1.15,2013-06-02 12:53:00,
2013-06-02 07:58:00,54.3,47.9,30.15,NW,315,8.0,-999.0,79,0.00,,,0.00,Wunderground v.1.15,2013-06-02 12:58:00,
2013-06-02 08:02:00,54.5,48.5,30.15,NE,35,8.0,8.0,80,0.00,,,0.00,Wunderground v.1.15,2013-06-02 13:02:00,
2013-06-02 08:03:00,54.3,47.9,30.15,NW,315,8.0,-999.0,79,0.00,,,0.00,Wunderground v.1.15,2013-06-02 13:03:00,
2013-06-02 08:08:00,54.9,48.2,30.15,NNW,338,8.0,-999.0,78,0.00,,,0.00,Wunderground v.1.15,2013-06-02 13:08:00,
2013-06-02 08:12:00,54.8,48.1,30.15,NNE,18,8.0,25.0,78,0.00,,,0.00,Wunderground v.1.15,2013-06-02 13:12:00,
2013-06-02 08:13:00,54.9,48.2,30.15,NNW,338,8.0,-999.0,78,0.00,,,0.00,Wunderground v.1.15,2013-06-02 13:13:00,
2013-06-02 08:18:00,54.9,48.2,30.15,NNW,338,8.0,-999.0,78,0.00,,,0.00,Wunderground v.1.15,2013-06-02 13:18:00,
2013-06-02 08:22:00,55.3,48.6,30.16,North,360,9.0,25.0,78,0.00,,,0.00,Wunderground v.1.15,2013-06-02 13:22:00,
2013-06-02 08:23:00,55.6,48.2,30.15,NW,315,8.0,-999.0,76,0.00,,,0.00,Wunderground v.1.15,2013-06-02 13:23:00,
2013-06-02 08:28:00,55.6,48.2,30.15,NW,315,8.0,-999.0,76,0.00,,,0.00,Wunderground v.1.15,2013-06-02 13:28:00,
2013-06-02 08:32:00,55.6,48.2,30.15,NNE,18,9.0,25.0,76,0.00,,,0.00,Wunderground v.1.15,2013-06-02 13:32:00,
2013-06-02 08:33:00,55.6,48.2,30.15,NW,315,8.0,-999.0,76,0.00,,,0.00,Wunderground v.1.15,2013-06-02 13:33:00,
2013-06-02 08:38:00,56.1,48.3,30.15,NNE,23,9.0,-999.0,75,0.00,,,0.00,Wunderground v.1.15,2013-06-02 13:38:00,
2013-06-02 08:42:00,56.2,48.4,30.15,North,352,8.0,25.0,75,0.00,,,0.00,Wunderground v.1.15,2013-06-02 13:42:00,
2013-06-02 08:43:00,56.1,48.3,30.15,NNE,23,9.0,-999.0,75,0.00,,,0.00,Wunderground v.1.15,2013-06-02 13:43:00,
2013-06-02 08:48:00,56.1,48.3,30.15,NNE,23,9.0,-999.0,75,0.00,,,0.00,Wunderground v.1.15,2013-06-02 13:48:00,
2013-06-02 08:51:00,56.3,48.5,30.15,NE,34,11.0,25.0,75,0.00,,,0.00,Wunderground v.1.15,2013-06-02 13:51:00,
2013-06-02 08:53:00,56.7,48.5,30.16,NNE,23,10.0,-999.0,74,0.00,,,0.00,Wunderground v.1.15,2013-06-02 13:53:00,
2013-06-02 08:58:00,56.7,48.5,30.16,NNE,23,10.0,-999.0,74,0.00,,,0.00,Wunderground v.1.15,2013-06-02 13:58:00,
2013-06-02 09:01:00,56.8,48.2,30.16,NNW,337,9.0,25.0,73,0.00,,,0.00,Wunderground v.1.15,2013-06-02 14:01:00,
2013-06-02 09:03:00,56.7,48.5,30.16,NNE,23,10.0,-999.0,74,0.00,,,0.00,Wunderground v.1.15,2013-06-02 14:03:00,
2013-06-02 09:08:00,57.1,48.5,30.16,NNE,23,11.0,-999.0,73,0.00,,,0.00,Wunderground v.1.15,2013-06-02 14:08:00,
2013-06-02 09:11:00,56.9,47.6,30.16,NNE,30,11.0,25.0,71,0.00,,,0.00,Wunderground v.1.15,2013-06-02 14:11:00,
2013-06-02 09:13:00,57.1,48.5,30.16,NNE,23,11.0,-999.0,73,0.00,,,0.00,Wunderground v.1.15,2013-06-02 14:13:00,
2013-06-02 09:18:00,57.1,48.5,30.16,NNE,23,11.0,-999.0,73,0.00,,,0.00,Wunderground v.1.15,2013-06-02 14:18:00,
2013-06-02 09:22:00,57.4,48.1,30.16,NE,37,12.0,25.0,71,0.00,,,0.00,Wunderground v.1.15,2013-06-02 14:22:00,
2013-06-02 09:23:00,57.6,48.6,30.16,NNE,23,12.0,-999.0,72,0.00,,,0.00,Wunderground v.1.15,2013-06-02 14:23:00,
2013-06-02 09:28:00,57.6,48.6,30.16,NNE,23,12.0,-999.0,72,0.00,,,0.00,Wunderground v.1.15,2013-06-02 14:28:00,
2013-06-02 09:32:00,57.7,48.7,30.16,NNW,329,11.0,11.0,72,0.00,,,0.00,Wunderground v.1.15,2013-06-02 14:32:00,
2013-06-02 09:33:00,57.6,48.6,30.16,NNE,23,12.0,-999.0,72,0.00,,,0.00,Wunderground v.1.15,2013-06-02 14:33:00,
2013-06-02 09:38:00,58.4,49.4,30.16,NNE,23,10.0,-999.0,72,0.00,,,0.00,Wunderground v.1.15,2013-06-02 14:38:00,
2013-06-02 09:42:00,58.3,48.9,30.15,NNE,30,10.0,25.0,71,0.00,,,0.00,Wunderground v.1.15,2013-06-02 14:42:00,
2013-06-02 09:43:00,58.4,49.4,30.16,NNE,23,10.0,-999.0,72,0.00,,,0.00,Wunderground v.1.15,2013-06-02 14:43:00,
2013-06-02 09:48:00,58.4,49.4,30.16,NNE,23,10.0,-999.0,72,0.00,,,0.00,Wunderground v.1.15,2013-06-02 14:48:00,
2013-06-02 09:52:00,58.7,48.6,30.16,NW,312,10.0,10.0,69,0.00,,,0.00,Wunderground v.1.15,2013-06-02 14:52:00,
2013-06-02 09:53:00,58.9,48.7,30.16,NNW,338,9.0,-999.0,69,0.00,,,0.00,Wunderground v.1.15,2013-06-02 14:53:00,
2013-06-02 09:58:00,58.9,48.7,30.16,NNW,338,9.0,-999.0,69,0.00,,,0.00,Wunderground v.1.15,2013-06-02 14:58:00,
2013-06-02 10:02:00,58.8,49.0,30.16,NW,323,9.0,25.0,70,0.00,,,0.00,Wunderground v.1.15,2013-06-02 15:02:00,
2013-06-02 10:03:00,58.9,48.7,30.16,NNW,338,9.0,-999.0,69,0.00,,,0.00,Wunderground v.1.15,2013-06-02 15:03:00,
2013-06-02 10:08:00,59.4,48.8,30.16,NNW,338,10.0,-999.0,68,0.00,,,0.00,Wunderground v.1.15,2013-06-02 15:08:00,
2013-06-02 10:12:00,59.3,48.3,30.16,NW,323,10.0,25.0,67,0.00,,,0.00,Wunderground v.1.15,2013-06-02 15:12:00,
2013-06-02 10:13:00,59.4,48.8,30.16,NNW,338,10.0,-999.0,68,0.00,,,0.00,Wunderground v.1.15,2013-06-02 15:13:00,
2013-06-02 10:18:00,59.4,48.8,30.16,NNW,338,10.0,-999.0,68,0.00,,,0.00,Wunderground v.1.15,2013-06-02 15:18:00,
2013-06-02 10:22:00,59.7,49.1,30.16,North,355,9.0,9.0,68,0.00,,,0.00,Wunderground v.1.15,2013-06-02 15:22:00,
2013-06-02 10:23:00,60.0,48.2,30.16,NNE,23,10.0,-999.0,65,0.00,,,0.00,Wunderground v.1.15,2013-06-02 15:23:00,
2013-06-02 10:28:00,60.0,48.2,30.16,NNE,23,10.0,-999.0,65,0.00,,,0.00,Wunderground v.1.15,2013-06-02 15:28:00,
2013-06-02 10:32:00,60.1,49.1,30.16,North,354,11.0,11.0,67,0.00,,,0.00,Wunderground v.1.15,2013-06-02 15:32:00,
2013-06-02 10:33:00,60.0,48.2,30.16,NNE,23,10.0,-999.0,65,0.00,,,0.00,Wunderground v.1.15,2013-06-02 15:33:00,
2013-06-02 10:38:00,60.7,48.0,30.16,NNE,23,10.0,-999.0,63,0.00,,,0.00,Wunderground v.1.15,2013-06-02 15:38:00,
2013-06-02 10:42:00,60.5,48.7,30.16,NE,51,10.0,10.0,65,0.00,,,0.00,Wunderground v.1.15,2013-06-02 15:42:00,
2013-06-02 10:43:00,60.7,48.0,30.16,NNE,23,10.0,-999.0,63,0.00,,,0.00,Wunderground v.1.15,2013-06-02 15:43:00,
2013-06-02 10:48:00,60.7,48.0,30.16,NNE,23,10.0,-999.0,63,0.00,,,0.00,Wunderground v.1.15,2013-06-02 15:48:00,
2013-06-02 10:52:00,60.6,48.8,30.16,North,4,9.0,25.0,65,0.00,,,0.00,Wunderground v.1.15,2013-06-02 15:52:00,
2013-06-02 10:53:00,60.8,48.1,30.16,NNE,23,10.0,-999.0,63,0.00,,,0.00,Wunderground v.1.15,2013-06-02 15:53:00,
2013-06-02 10:58:00,60.8,48.1,30.16,NNE,23,10.0,-999.0,63,0.00,,,0.00,Wunderground v.1.15,2013-06-02 15:58:00,
2013-06-02 11:02:00,60.9,48.2,30.16,North,8,11.0,25.0,63,0.00,,,0.00,Wunderground v.1.15,2013-06-02 16:02:00,
2013-06-02 11:03:00,60.8,48.1,30.16,NNE,23,10.0,-999.0,63,0.00,,,0.00,Wunderground v.1.15,2013-06-02 16:03:00,
2013-06-02 11:08:00,61.5,47.9,30.16,North,0,9.0,-999.0,61,0.00,,,0.00,Wunderground v.1.15,2013-06-02 16:08:00,
2013-06-02 11:12:00,61.6,48.9,30.16,NW,316,9.0,25.0,63,0.00,,,0.00,Wunderground v.1.15,2013-06-02 16:12:00,
2013-06-02 11:13:00,61.5,47.9,30.16,North,0,9.0,-999.0,61,0.00,,,0.00,Wunderground v.1.15,2013-06-02 16:13:00,
2013-06-02 11:18:00,61.5,47.9,30.16,North,0,9.0,-999.0,61,0.00,,,0.00,Wunderground v.1.15,2013-06-02 16:18:00,
2013-06-02 11:22:00,62.0,47.0,30.16,NW,304,9.0,9.0,58,0.00,,,0.00,Wunderground v.1.15,2013-06-02 16:22:00,
2013-06-02 11:23:00,61.8,48.2,30.16,NNW,338,10.0,-999.0,61,0.00,,,0.00,Wunderground v.1.15,2013-06-02 16:23:00,
2013-06-02 11:28:00,61.8,48.2,30.16,NNW,338,10.0,-999.0,61,0.00,,,0.00,Wunderground v.1.15,2013-06-02 16:28:00,
2013-06-02 11:32:00,61.9,47.9,30.16,NNE,25,11.0,25.0,60,0.00,,,0.00,Wunderground v.1.15,2013-06-02 16:32:00,
2013-06-02 11:33:00,61.8,48.2,30.16,NNW,338,10.0,-999.0,61,0.00,,,0.00,Wunderground v.1.15,2013-06-02 16:33:00,
2013-06-02 11:38:00,62.6,49.0,30.16,NNE,23,9.0,-999.0,61,0.00,,,0.00,Wunderground v.1.15,2013-06-02 16:38:00,
2013-06-02 11:42:00,62.4,48.8,30.16,NE,54,9.0,9.0,61,0.00,,,0.00,Wunderground v.1.15,2013-06-02 16:42:00,
2013-06-02 11:43:00,62.6,49.0,30.16,NNE,23,9.0,-999.0,61,0.00,,,0.00,Wunderground v.1.15,2013-06-02 16:43:00,
2013-06-02 11:48:00,62.6,49.0,30.16,NNE,23,9.0,-999.0,61,0.00,,,0.00,Wunderground v.1.15,2013-06-02 16:48:00,
2013-06-02 11:52:00,62.8,49.1,30.15,NW,307,10.0,25.0,61,0.00,,,0.00,Wunderground v.1.15,2013-06-02 16:52:00,
2013-06-02 11:53:00,63.0,48.0,30.15,NW,315,10.0,-999.0,58,0.00,,,0.00,Wunderground v.1.15,2013-06-02 16:53:00,
2013-06-02 11:58:00,63.0,48.0,30.15,NW,315,10.0,-999.0,58,0.00,,,0.00,Wunderground v.1.15,2013-06-02 16:58:00,
2013-06-02 12:01:00,62.9,47.0,30.15,NNW,334,10.0,10.0,56,0.00,,,0.00,Wunderground v.1.15,2013-06-02 17:01:00,
2013-06-02 12:03:00,63.0,48.0,30.15,NW,315,10.0,-999.0,58,0.00,,,0.00,Wunderground v.1.15,2013-06-02 17:03:00,
2013-06-02 12:08:00,63.4,47.4,30.15,NNW,338,10.0,-999.0,56,0.00,,,0.00,Wunderground v.1.15,2013-06-02 17:08:00,
2013-06-02 12:11:00,63.1,46.7,30.15,NW,321,10.0,25.0,55,0.00,,,0.00,Wunderground v.1.15,2013-06-02 17:11:00,
2013-06-02 12:13:00,63.4,47.4,30.15,NNW,338,10.0,-999.0,56,0.00,,,0.00,Wunderground v.1.15,2013-06-02 17:13:00,
2013-06-02 12:18:00,63.4,47.4,30.15,NNW,338,10.0,-999.0,56,0.00,,,0.00,Wunderground v.1.15,2013-06-02 17:18:00,
2013-06-02 12:21:00,63.3,45.9,30.15,North,6,11.0,11.0,53,0.00,,,0.00,Wunderground v.1.15,2013-06-02 17:21:00,
2013-06-02 12:23:00,63.8,46.8,30.15,NNW,338,11.0,-999.0,54,0.00,,,0.00,Wunderground v.1.15,2013-06-02 17:23:00,
2013-06-02 12:28:00,63.8,46.8,30.15,NNW,338,11.0,-999.0,54,0.00,,,0.00,Wunderground v.1.15,2013-06-02 17:28:00,
2013-06-02 12:31:00,63.7,47.7,30.15,NE,44,10.0,10.0,56,0.00,,,0.00,Wunderground v.1.15,2013-06-02 17:31:00,
2013-06-02 12:33:00,63.8,46.8,30.15,NNW,338,11.0,-999.0,54,0.00,,,0.00,Wunderground v.1.15,2013-06-02 17:33:00,
2013-06-02 12:38:00,64.1,47.6,30.15,NNE,23,9.0,-999.0,55,0.00,,,0.00,Wunderground v.1.15,2013-06-02 17:38:00,
2013-06-02 12:41:00,64.2,47.7,30.15,NNE,12,9.0,9.0,55,0.00,,,0.00,Wunderground v.1.15,2013-06-02 17:41:00,
2013-06-02 12:43:00,64.1,47.6,30.15,NNE,23,9.0,-999.0,55,0.00,,,0.00,Wunderground v.1.15,2013-06-02 17:43:00,
2013-06-02 12:48:00,64.1,47.6,30.15,NNE,23,9.0,-999.0,55,0.00,,,0.00,Wunderground v.1.15,2013-06-02 17:48:00,
2013-06-02 12:51:00,64.8,48.7,30.15,WNW,297,9.0,25.0,56,0.00,,,0.00,Wunderground v.1.15,2013-06-02 17:51:00,
2013-06-02 12:53:00,64.2,47.7,30.15,NW,315,9.0,-999.0,55,0.00,,,0.00,Wunderground v.1.15,2013-06-02 17:53:00,
2013-06-02 12:58:00,64.2,47.7,30.15,NW,315,9.0,-999.0,55,0.00,,,0.00,Wunderground v.1.15,2013-06-02 17:58:00,
2013-06-02 13:02:00,64.1,46.1,30.15,NNE,32,10.0,25.0,52,0.00,,,0.00,Wunderground v.1.15,2013-06-02 18:02:00,
2013-06-02 13:03:00,64.2,47.7,30.15,NW,315,9.0,-999.0,55,0.00,,,0.00,Wunderground v.1.15,2013-06-02 18:03:00,
2013-06-02 13:08:00,64.6,47.6,30.14,NNE,23,9.0,-999.0,54,0.00,,,0.00,Wunderground v.1.15,2013-06-02 18:08:00,
2013-06-02 13:12:00,64.5,46.0,30.14,NNE,25,8.0,25.0,51,0.00,,,0.00,Wunderground v.1.15,2013-06-02 18:12:00,
2013-06-02 13:13:00,64.6,47.6,30.14,NNE,23,9.0,-999.0,54,0.00,,,0.00,Wunderground v.1.15,2013-06-02 18:13:00,
2013-06-02 13:18:00,64.6,47.6,30.14,NNE,23,9.0,-999.0,54,0.00,,,0.00,Wunderground v.1.15,2013-06-02 18:18:00,
2013-06-02 13:22:00,65.0,45.9,30.14,NW,316,7.0,7.0,50,0.00,,,0.00,Wunderground v.1.15,2013-06-02 18:22:00,
2013-06-02 13:23:00,65.4,46.8,30.14,NW,315,7.0,-999.0,51,0.00,,,0.00,Wunderground v.1.15,2013-06-02 18:23:00,
2013-06-02 13:28:00,65.4,46.8,30.14,NW,315,7.0,-999.0,51,0.00,,,0.00,Wunderground v.1.15,2013-06-02 18:28:00,
2013-06-02 13:32:00,65.5,48.9,30.13,North,355,8.0,25.0,55,0.00,,,0.00,Wunderground v.1.15,2013-06-02 18:32:00,
2013-06-02 13:33:00,65.4,46.8,30.14,NW,315,7.0,-999.0,51,0.00,,,0.00,Wunderground v.1.15,2013-06-02 18:33:00,
2013-06-02 13:38:00,65.8,46.6,30.13,NNE,23,8.0,-999.0,50,0.00,,,0.00,Wunderground v.1.15,2013-06-02 18:38:00,
2013-06-02 13:42:00,65.9,48.3,30.13,West,276,8.0,8.0,53,0.00,,,0.00,Wunderground v.1.15,2013-06-02 18:42:00,
2013-06-02 13:43:00,65.8,46.6,30.13,NNE,23,8.0,-999.0,50,0.00,,,0.00,Wunderground v.1.15,2013-06-02 18:43:00,
2013-06-02 13:48:00,65.8,46.6,30.13,NNE,23,8.0,-999.0,50,0.00,,,0.00,Wunderground v.1.15,2013-06-02 18:48:00,
2013-06-02 13:52:00,65.8,46.6,30.13,NW,304,9.0,9.0,50,0.00,,,0.00,Wunderground v.1.15,2013-06-02 18:52:00,
2013-06-02 13:53:00,65.9,47.3,30.12,NW,315,8.0,-999.0,51,0.00,,,0.00,Wunderground v.1.15,2013-06-02 18:53:00,
2013-06-02 13:58:00,65.9,47.3,30.12,NW,315,8.0,-999.0,51,0.00,,,0.00,Wunderground v.1.15,2013-06-02 18:58:00,
2013-06-02 14:02:00,65.8,48.2,30.12,NNE,17,8.0,8.0,53,0.00,,,0.00,Wunderground v.1.15,2013-06-02 19:02:00,
2013-06-02 14:03:00,65.9,47.3,30.12,NW,315,8.0,-999.0,51,0.00,,,0.00,Wunderground v.1.15,2013-06-02 19:03:00,
2013-06-02 14:08:00,66.2,48.6,30.11,NE,45,8.0,-999.0,53,0.00,,,0.00,Wunderground v.1.15,2013-06-02 19:08:00,
2013-06-02 14:12:00,66.3,47.1,30.11,NE,52,8.0,25.0,50,0.00,,,0.00,Wunderground v.1.15,2013-06-02 19:12:00,
2013-06-02 14:13:00,66.2,48.6,30.11,NE,45,8.0,-999.0,53,0.00,,,0.00,Wunderground v.1.15,2013-06-02 19:13:00,
2013-06-02 14:18:00,66.2,48.6,30.11,NE,45,8.0,-999.0,53,0.00,,,0.00,Wunderground v.1.15,2013-06-02 19:18:00,
2013-06-02 14:22:00,66.6,47.9,30.11,NNE,13,7.0,7.0,51,0.00,,,0.00,Wunderground v.1.15,2013-06-02 19:22:00,
2013-06-02 14:23:00,66.8,46.5,30.11,NNE,23,8.0,-999.0,48,0.00,,,0.00,Wunderground v.1.15,2013-06-02 19:23:00,
2013-06-02 14:28:00,66.8,46.5,30.11,NNE,23,8.0,-999.0,48,0.00,,,0.00,Wunderground v.1.15,2013-06-02 19:28:00,
2013-06-02 14:32:00,66.8,46.5,30.11,NE,42,9.0,25.0,48,0.00,,,0.00,Wunderground v.1.15,2013-06-02 19:32:00,
2013-06-02 14:33:00,66.8,46.5,30.11,NNE,23,8.0,-999.0,48,0.00,,,0.00,Wunderground v.1.15,2013-06-02 19:33:00,
2013-06-02 14:38:00,67.3,48.5,30.11,NNE,23,7.0,-999.0,51,0.00,,,0.00,Wunderground v.1.15,2013-06-02 19:38:00,
2013-06-02 14:42:00,67.3,49.1,30.11,NE,37,6.0,6.0,52,0.00,,,0.00,Wunderground v.1.15,2013-06-02 19:42:00,
2013-06-02 14:43:00,67.3,48.5,30.11,NNE,23,7.0,-999.0,51,0.00,,,0.00,Wunderground v.1.15,2013-06-02 19:43:00,
2013-06-02 14:48:00,67.3,48.5,30.11,NNE,23,7.0,-999.0,51,0.00,,,0.00,Wunderground v.1.15,2013-06-02 19:48:00,
2013-06-02 14:52:00,67.4,48.1,30.10,NE,40,7.0,25.0,50,0.00,,,0.00,Wunderground v.1.15,2013-06-02 19:52:00,
2013-06-02 14:53:00,67.3,47.5,30.10,NE,45,8.0,-999.0,49,0.00,,,0.00,Wunderground v.1.15,2013-06-02 19:53:00,
2013-06-02 14:58:00,67.3,47.5,30.10,NE,45,8.0,-999.0,49,0.00,,,0.00,Wunderground v.1.15,2013-06-02 19:58:00,
2013-06-02 15:02:00,67.4,48.6,30.10,WNW,302,7.0,7.0,51,0.00,,,0.00,Wunderground v.1.15,2013-06-02 20:02:00,
2013-06-02 15:03:00,67.3,47.5,30.10,NE,45,8.0,-999.0,49,0.00,,,0.00,Wunderground v.1.15,2013-06-02 20:03:00,
2013-06-02 15:08:00,68.3,48.9,30.09,NNE,23,5.0,-999.0,50,0.00,,,0.00,Wunderground v.1.15,2013-06-02 20:08:00,
2013-06-02 15:12:00,68.6,48.7,30.10,NE,51,5.0,25.0,49,0.00,,,0.00,Wunderground v.1.15,2013-06-02 20:12:00,
2013-06-02 15:13:00,68.3,48.9,30.09,NNE,23,5.0,-999.0,50,0.00,,,0.00,Wunderground v.1.15,2013-06-02 20:13:00,
2013-06-02 15:18:00,68.3,48.9,30.09,NNE,23,5.0,-999.0,50,0.00,,,0.00,Wunderground v.1.15,2013-06-02 20:18:00,
2013-06-02 15:22:00,67.8,48.5,30.09,NW,319,8.0,8.0,50,0.00,,,0.00,Wunderground v.1.15,2013-06-02 20:22:00,
2013-06-02 15:23:00,67.8,47.9,30.09,NE,45,7.0,-999.0,49,0.00,,,0.00,Wunderground v.1.15,2013-06-02 20:23:00,
2013-06-02 15:28:00,67.8,47.9,30.09,NE,45,7.0,-999.0,49,0.00,,,0.00,Wunderground v.1.15,2013-06-02 20:28:00,
2013-06-02 15:32:00,67.8,48.5,30.09,ENE,63,7.0,7.0,50,0.00,,,0.00,Wunderground v.1.15,2013-06-02 20:32:00,
2013-06-02 15:33:00,67.8,47.9,30.09,NE,45,7.0,-999.0,49,0.00,,,0.00,Wunderground v.1.15,2013-06-02 20:33:00,
2013-06-02 15:38:00,68.4,48.5,30.08,NE,45,7.0,-999.0,49,0.00,,,0.00,Wunderground v.1.15,2013-06-02 20:38:00,
2013-06-02 15:41:00,68.0,48.7,30.08,NE,37,7.0,7.0,50,0.00,,,0.00,Wunderground v.1.15,2013-06-02 20:41:00,
2013-06-02 15:43:00,68.4,48.5,30.08,NE,45,7.0,-999.0,49,0.00,,,0.00,Wunderground v.1.15,2013-06-02 20:43:00,
2013-06-02 15:48:00,68.4,48.5,30.08,NE,45,7.0,-999.0,49,0.00,,,0.00,Wunderground v.1.15,2013-06-02 20:48:00,
2013-06-02 15:51:00,68.6,48.1,30.08,NE,50,7.0,25.0,48,0.00,,,0.00,Wunderground v.1.15,2013-06-02 20:51:00,
2013-06-02 15:53:00,68.1,47.1,30.08,NE,45,8.0,-999.0,47,0.00,,,0.00,Wunderground v.1.15,2013-06-02 20:53:00,
2013-06-02 15:58:00,68.1,47.1,30.08,NE,45,8.0,-999.0,47,0.00,,,0.00,Wunderground v.1.15,2013-06-02 20:58:00,
2013-06-02 16:01:00,68.1,45.9,30.07,NE,37,7.0,7.0,45,0.00,,,0.00,Wunderground v.1.15,2013-06-02 21:01:00,
2013-06-02 16:03:00,68.1,47.1,30.08,NE,45,8.0,-999.0,47,0.00,,,0.00,Wunderground v.1.15,2013-06-02 21:03:00,
2013-06-02 16:08:00,68.9,47.3,30.07,NE,45,6.0,-999.0,46,0.00,,,0.00,Wunderground v.1.15,2013-06-02 21:08:00,
2013-06-02 16:11:00,69.2,48.7,30.07,NE,51,7.0,25.0,48,0.00,,,0.00,Wunderground v.1.15,2013-06-02 21:11:00,
2013-06-02 16:13:00,68.9,47.3,30.07,NE,45,6.0,-999.0,46,0.00,,,0.00,Wunderground v.1.15,2013-06-02 21:13:00,
2013-06-02 16:18:00,68.9,47.3,30.07,NE,45,6.0,-999.0,46,0.00,,,0.00,Wunderground v.1.15,2013-06-02 21:18:00,
2013-06-02 16:22:00,68.8,49.4,30.07,East,82,6.0,25.0,50,0.00,,,0.00,Wunderground v.1.15,2013-06-02 21:22:00,
2013-06-02 16:23:00,69.0,49.6,30.06,ENE,68,6.0,-999.0,50,0.00,,,0.00,Wunderground v.1.15,2013-06-02 21:23:00,
2013-06-02 16:28:00,69.0,49.6,30.06,ENE,68,6.0,-999.0,50,0.00,,,0.00,Wunderground v.1.15,2013-06-02 21:28:00,
2013-06-02 16:32:00,69.2,48.7,30.06,ENE,69,6.0,25.0,48,0.00,,,0.00,Wunderground v.1.15,2013-06-02 21:32:00,
2013-06-02 16:33:00,69.0,49.6,30.06,ENE,68,6.0,-999.0,50,0.00,,,0.00,Wunderground v.1.15,2013-06-02 21:33:00,
2013-06-02 16:38:00,69.3,48.2,30.05,ENE,68,7.0,-999.0,47,0.00,,,0.00,Wunderground v.1.15,2013-06-02 21:38:00,
2013-06-02 16:42:00,69.2,49.2,30.05,East,93,6.0,6.0,49,0.00,,,0.00,Wunderground v.1.15,2013-06-02 21:42:00,
2013-06-02 16:43:00,69.3,48.2,30.05,ENE,68,7.0,-999.0,47,0.00,,,0.00,Wunderground v.1.15,2013-06-02 21:43:00,
2013-06-02 16:48:00,69.3,48.2,30.05,ENE,68,7.0,-999.0,47,0.00,,,0.00,Wunderground v.1.15,2013-06-02 21:48:00,
2013-06-02 16:52:00,69.4,47.7,30.05,ENE,71,6.0,6.0,46,0.00,,,0.00,Wunderground v.1.15,2013-06-02 21:52:00,
2013-06-02 16:53:00,69.6,49.6,30.05,ENE,68,6.0,-999.0,49,0.00,,,0.00,Wunderground v.1.15,2013-06-02 21:53:00,
2013-06-02 16:58:00,69.6,49.6,30.05,ENE,68,6.0,-999.0,49,0.00,,,0.00,Wunderground v.1.15,2013-06-02 21:58:00,
2013-06-02 17:02:00,69.7,48.0,30.05,NE,54,6.0,6.0,46,0.00,,,0.00,Wunderground v.1.15,2013-06-02 22:02:00,
2013-06-02 17:03:00,69.6,49.6,30.05,ENE,68,6.0,-999.0,49,0.00,,,0.00,Wunderground v.1.15,2013-06-02 22:03:00,
2013-06-02 17:08:00,70.1,49.5,30.04,ENE,68,5.0,-999.0,48,0.00,,,0.00,Wunderground v.1.15,2013-06-02 22:08:00,
2013-06-02 17:12:00,70.1,50.6,30.04,ENE,71,5.0,25.0,50,0.00,,,0.00,Wunderground v.1.15,2013-06-02 22:12:00,
2013-06-02 17:13:00,70.1,49.5,30.04,ENE,68,5.0,-999.0,48,0.00,,,0.00,Wunderground v.1.15,2013-06-02 22:13:00,
2013-06-02 17:18:00,70.1,49.5,30.04,ENE,68,5.0,-999.0,48,0.00,,,0.00,Wunderground v.1.15,2013-06-02 22:18:00,
2013-06-02 17:22:00,70.1,49.5,30.04,ENE,61,5.0,25.0,48,0.00,,,0.00,Wunderground v.1.15,2013-06-02 22:22:00,
2013-06-02 17:23:00,70.2,49.0,30.04,ENE,68,4.0,-999.0,47,0.00,,,0.00,Wunderground v.1.15,2013-06-02 22:23:00,
2013-06-02 17:28:00,70.2,49.0,30.04,ENE,68,4.0,-999.0,47,0.00,,,0.00,Wunderground v.1.15,2013-06-02 22:28:00,
2013-06-02 17:32:00,70.1,48.4,30.04,NE,41,5.0,25.0,46,0.00,,,0.00,Wunderground v.1.15,2013-06-02 22:32:00,
2013-06-02 17:33:00,70.2,49.0,30.04,ENE,68,4.0,-999.0,47,0.00,,,0.00,Wunderground v.1.15,2013-06-02 22:33:00,
2013-06-02 17:38:00,70.9,49.1,30.03,ENE,68,4.0,-999.0,46,0.00,,,0.00,Wunderground v.1.15,2013-06-02 22:38:00,
2013-06-02 17:42:00,70.7,48.9,30.03,East,99,4.0,25.0,46,0.00,,,0.00,Wunderground v.1.15,2013-06-02 22:42:00,
2013-06-02 17:43:00,70.9,49.1,30.03,ENE,68,4.0,-999.0,46,0.00,,,0.00,Wunderground v.1.15,2013-06-02 22:43:00,
2013-06-02 17:48:00,70.9,49.1,30.03,ENE,68,4.0,-999.0,46,0.00,,,0.00,Wunderground v.1.15,2013-06-02 22:48:00,
2013-06-02 17:52:00,70.3,46.7,30.03,ENE,67,5.0,5.0,43,0.00,,,0.00,Wunderground v.1.15,2013-06-02 22:52:00,
2013-06-02 17:53:00,70.8,47.2,30.03,NE,45,4.0,-999.0,43,0.00,,,0.00,Wunderground v.1.15,2013-06-02 22:53:00,
2013-06-02 17:58:00,70.8,47.2,30.03,NE,45,4.0,-999.0,43,0.00,,,0.00,Wunderground v.1.15,2013-06-02 22:58:00,
2013-06-02 18:02:00,70.6,47.0,30.03,ENE,72,4.0,25.0,43,0.00,,,0.00,Wunderground v.1.15,2013-06-02 23:02:00,
2013-06-02 18:03:00,70.8,47.2,30.03,NE,45,4.0,-999.0,43,0.00,,,0.00,Wunderground v.1.15,2013-06-02 23:03:00,
2013-06-02 18:08:00,70.4,47.4,30.02,NE,45,4.0,-999.0,44,0.00,,,0.00,Wunderground v.1.15,2013-06-02 23:08:00,
2013-06-02 18:12:00,70.5,48.1,30.02,NE,54,4.0,25.0,45,0.00,,,0.00,Wunderground v.1.15,2013-06-02 23:12:00,
2013-06-02 18:13:00,70.4,47.4,30.02,NE,45,4.0,-999.0,44,0.00,,,0.00,Wunderground v.1.15,2013-06-02 23:13:00,
2013-06-02 18:18:00,70.4,47.4,30.02,NE,45,4.0,-999.0,44,0.00,,,0.00,Wunderground v.1.15,2013-06-02 23:18:00,
2013-06-02 18:22:00,70.3,49.7,30.02,ENE,66,5.0,5.0,48,0.00,,,0.00,Wunderground v.1.15,2013-06-02 23:22:00,
2013-06-02 18:23:00,70.5,48.7,30.02,ENE,68,4.0,-999.0,46,0.00,,,0.00,Wunderground v.1.15,2013-06-02 23:23:00,
2013-06-02 18:28:00,70.5,48.7,30.02,ENE,68,4.0,-999.0,46,0.00,,,0.00,Wunderground v.1.15,2013-06-02 23:28:00,
2013-06-02 18:32:00,70.5,48.7,30.02,ESE,111,4.0,25.0,46,0.00,,,0.00,Wunderground v.1.15,2013-06-02 23:32:00,
2013-06-02 18:33:00,70.5,48.7,30.02,ENE,68,4.0,-999.0,46,0.00,,,0.00,Wunderground v.1.15,2013-06-02 23:33:00,
2013-06-02 18:38:00,70.3,48.5,30.02,ENE,68,3.0,-999.0,46,0.00,,,0.00,Wunderground v.1.15,2013-06-02 23:38:00,
2013-06-02 18:42:00,70.5,48.7,30.02,ENE,78,3.0,25.0,46,0.00,,,0.00,Wunderground v.1.15,2013-06-02 23:42:00,
2013-06-02 18:43:00,70.3,48.5,30.02,ENE,68,3.0,-999.0,46,0.00,,,0.00,Wunderground v.1.15,2013-06-02 23:43:00,
2013-06-02 18:48:00,70.3,48.5,30.02,ENE,68,3.0,-999.0,46,0.00,,,0.00,Wunderground v.1.15,2013-06-02 23:48:00,
2013-06-02 18:52:00,70.3,49.7,30.02,East,80,4.0,4.0,48,0.00,,,0.00,Wunderground v.1.15,2013-06-02 23:52:00,
2013-06-02 18:53:00,70.4,49.8,30.02,East,90,4.0,-999.0,48,0.00,,,0.00,Wunderground v.1.15,2013-06-02 23:53:00,
2013-06-02 18:58:00,70.4,49.8,30.02,East,90,4.0,-999.0,48,0.00,,,0.00,Wunderground v.1.15,2013-06-02 23:58:00,
2013-06-02 19:01:00,70.4,49.2,30.02,East,91,4.0,25.0,47,0.00,,,0.00,Wunderground v.1.15,2013-06-03 00:01:00,
2013-06-02 19:03:00,70.4,49.8,30.02,East,90,4.0,-999.0,48,0.00,,,0.00,Wunderground v.1.15,2013-06-03 00:03:00,
2013-06-02 19:08:00,69.9,47.6,30.03,East,90,5.0,-999.0,45,0.00,,,0.00,Wunderground v.1.15,2013-06-03 00:08:00,
2013-06-02 19:11:00,70.0,48.8,30.03,ENE,75,5.0,5.0,47,0.00,,,0.00,Wunderground v.1.15,2013-06-03 00:11:00,
2013-06-02 19:13:00,69.9,47.6,30.03,East,90,5.0,-999.0,45,0.00,,,0.00,Wunderground v.1.15,2013-06-03 00:13:00,
2013-06-02 19:18:00,69.9,47.6,30.03,East,90,5.0,-999.0,45,0.00,,,0.00,Wunderground v.1.15,2013-06-03 00:18:00,
2013-06-02 19:21:00,70.1,47.8,30.03,East,91,3.0,3.0,45,0.00,,,0.00,Wunderground v.1.15,2013-06-03 00:21:00,
2013-06-02 19:23:00,70.0,47.7,30.03,ENE,68,3.0,-999.0,45,0.00,,,0.00,Wunderground v.1.15,2013-06-03 00:23:00,
2013-06-02 19:28:00,70.0,47.7,30.03,ENE,68,3.0,-999.0,45,0.00,,,0.00,Wunderground v.1.15,2013-06-03 00:28:00,
2013-06-02 19:31:00,70.0,47.1,30.03,ENE,75,3.0,3.0,44,0.00,,,0.00,Wunderground v.1.15,2013-06-03 00:31:00,
2013-06-02 19:33:00,70.0,47.7,30.03,ENE,68,3.0,-999.0,45,0.00,,,0.00,Wunderground v.1.15,2013-06-03 00:33:00,
2013-06-02 19:38:00,70.3,48.5,30.03,ENE,68,2.0,-999.0,46,0.00,,,0.00,Wunderground v.1.15,2013-06-03 00:38:00,
2013-06-02 19:41:00,70.2,49.0,30.03,East,82,2.0,25.0,47,0.00,,,0.00,Wunderground v.1.15,2013-06-03 00:41:00,
2013-06-02 19:43:00,70.3,48.5,30.03,ENE,68,2.0,-999.0,46,0.00,,,0.00,Wunderground v.1.15,2013-06-03 00:43:00,
2013-06-02 19:48:00,70.3,48.5,30.03,ENE,68,2.0,-999.0,46,0.00,,,0.00,Wunderground v.1.15,2013-06-03 00:48:00,
2013-06-02 19:52:00,70.4,48.6,30.03,ENE,75,2.0,25.0,46,0.00,,,0.00,Wunderground v.1.15,2013-06-03 00:52:00,
2013-06-02 19:53:00,70.5,48.1,30.03,ENE,68,2.0,-999.0,45,0.00,,,0.00,Wunderground v.1.15,2013-06-03 00:53:00,
2013-06-02 19:58:00,70.5,48.1,30.03,ENE,68,2.0,-999.0,45,0.00,,,0.00,Wunderground v.1.15,2013-06-03 00:58:00,
2013-06-02 20:01:00,70.6,48.2,30.03,ENE,73,1.0,25.0,45,0.00,,,0.00,Wunderground v.1.15,2013-06-03 01:01:00,
2013-06-02 20:03:00,70.5,48.1,30.03,ENE,68,2.0,-999.0,45,0.00,,,0.00,Wunderground v.1.15,2013-06-03 01:03:00,
2013-06-02 20:08:00,70.3,48.5,30.03,ENE,68,1.0,-999.0,46,0.00,,,0.00,Wunderground v.1.15,2013-06-03 01:08:00,
2013-06-02 20:11:00,70.4,49.2,30.03,ENE,77,1.0,25.0,47,0.00,,,0.00,Wunderground v.1.15,2013-06-03 01:11:00,
2013-06-02 20:13:00,70.3,48.5,30.03,ENE,68,1.0,-999.0,46,0.00,,,0.00,Wunderground v.1.15,2013-06-03 01:13:00,
2013-06-02 20:18:00,70.3,48.5,30.03,ENE,68,1.0,-999.0,46,0.00,,,0.00,Wunderground v.1.15,2013-06-03 01:18:00,
2013-06-02 20:21:00,69.7,51.3,30.03,ESE,110,2.0,25.0,52,0.00,,,0.00,Wunderground v.1.15,2013-06-03 01:21:00,
2013-06-02 20:23:00,68.6,51.3,30.03,East,90,2.0,-999.0,54,0.00,,,0.00,Wunderground v.1.15,2013-06-03 01:23:00,
2013-06-02 20:28:00,68.6,51.3,30.03,East,90,2.0,-999.0,54,0.00,,,0.00,Wunderground v.1.15,2013-06-03 01:28:00,
2013-06-02 20:32:00,68.3,51.5,30.03,East,89,2.0,25.0,55,0.00,,,0.00,Wunderground v.1.15,2013-06-03 01:32:00,
2013-06-02 20:33:00,68.6,51.3,30.03,East,90,2.0,-999.0,54,0.00,,,0.00,Wunderground v.1.15,2013-06-03 01:33:00,
2013-06-02 20:38:00,66.9,52.1,30.03,East,90,1.0,-999.0,59,0.00,,,0.00,Wunderground v.1.15,2013-06-03 01:38:00,
2013-06-02 20:42:00,67.2,52.4,30.03,ESE,110,1.0,1.0,59,0.00,,,0.00,Wunderground v.1.15,2013-06-03 01:42:00,
2013-06-02 20:43:00,66.9,52.1,30.03,East,90,1.0,-999.0,59,0.00,,,0.00,Wunderground v.1.15,2013-06-03 01:43:00,
2013-06-02 20:48:00,66.9,52.1,30.03,East,90,1.0,-999.0,59,0.00,,,0.00,Wunderground v.1.15,2013-06-03 01:48:00,
2013-06-02 20:52:00,65.8,52.4,30.03,East,91,0.0,25.0,62,0.00,,,0.00,Wunderground v.1.15,2013-06-03 01:52:00,
2013-06-02 20:53:00,64.8,51.9,30.03,East,90,1.0,-999.0,63,0.00,,,0.00,Wunderground v.1.15,2013-06-03 01:53:00,
2013-06-02 20:58:00,64.8,51.9,30.03,East,90,1.0,-999.0,63,0.00,,,0.00,Wunderground v.1.15,2013-06-03 01:58:00,
2013-06-02 21:01:00,64.6,51.7,30.03,East,94,1.0,25.0,63,0.00,,,0.00,Wunderground v.1.15,2013-06-03 02:01:00,
2013-06-02 21:03:00,64.8,51.9,30.03,East,90,1.0,-999.0,63,0.00,,,0.00,Wunderground v.1.15,2013-06-03 02:03:00,
2013-06-02 21:08:00,63.7,51.3,30.03,East,90,2.0,-999.0,64,0.00,,,0.00,Wunderground v.1.15,2013-06-03 02:08:00,
2013-06-02 21:12:00,63.8,51.4,30.03,ESE,105,2.0,25.0,64,0.00,,,0.00,Wunderground v.1.15,2013-06-03 02:12:00,
2013-06-02 21:13:00,63.7,51.3,30.03,East,90,2.0,-999.0,64,0.00,,,0.00,Wunderground v.1.15,2013-06-03 02:13:00,
2013-06-02 21:18:00,63.7,51.3,30.03,East,90,2.0,-999.0,64,0.00,,,0.00,Wunderground v.1.15,2013-06-03 02:18:00,
2013-06-02 21:22:00,63.4,51.4,30.03,ESE,108,1.0,25.0,65,0.00,,,0.00,Wunderground v.1.15,2013-06-03 02:22:00,
2013-06-02 21:23:00,62.9,51.4,30.03,East,90,1.0,-999.0,66,0.00,,,0.00,Wunderground v.1.15,2013-06-03 02:23:00,
2013-06-02 21:28:00,62.9,51.4,30.03,East,90,1.0,-999.0,66,0.00,,,0.00,Wunderground v.1.15,2013-06-03 02:28:00,
2013-06-02 21:32:00,62.7,51.6,30.03,ESE,107,0.0,25.0,67,0.00,,,0.00,Wunderground v.1.15,2013-06-03 02:32:00,
2013-06-02 21:33:00,62.9,51.4,30.03,East,90,1.0,-999.0,66,0.00,,,0.00,Wunderground v.1.15,2013-06-03 02:33:00,
2013-06-02 21:38:00,62.0,51.3,30.03,East,90,1.0,-999.0,68,0.00,,,0.00,Wunderground v.1.15,2013-06-03 02:38:00,
2013-06-02 21:42:00,62.0,51.3,30.03,East,94,1.0,25.0,68,0.00,,,0.00,Wunderground v.1.15,2013-06-03 02:42:00,
2013-06-02 21:43:00,62.0,51.3,30.03,East,90,1.0,-999.0,68,0.00,,,0.00,Wunderground v.1.15,2013-06-03 02:43:00,
2013-06-02 21:48:00,62.0,51.3,30.03,East,90,1.0,-999.0,68,0.00,,,0.00,Wunderground v.1.15,2013-06-03 02:48:00,
2013-06-02 21:52:00,61.9,51.2,30.03,ESE,103,2.0,25.0,68,0.00,,,0.00,Wunderground v.1.15,2013-06-03 02:52:00,
2013-06-02 21:53:00,61.7,50.6,30.03,East,90,2.0,-999.0,67,0.00,,,0.00,Wunderground v.1.15,2013-06-03 02:53:00,
2013-06-02 21:58:00,61.7,50.6,30.03,East,90,2.0,-999.0,67,0.00,,,0.00,Wunderground v.1.15,2013-06-03 02:58:00,
2013-06-02 22:02:00,61.7,50.6,30.03,East,82,2.0,25.0,67,0.00,,,0.00,Wunderground v.1.15,2013-06-03 03:02:00,
2013-06-02 22:03:00,61.7,50.6,30.03,East,90,2.0,-999.0,67,0.00,,,0.00,Wunderground v.1.15,2013-06-03 03:03:00,
2013-06-02 22:08:00,61.4,50.7,30.03,East,90,3.0,-999.0,68,0.00,,,0.00,Wunderground v.1.15,2013-06-03 03:08:00,
2013-06-02 22:12:00,61.5,50.8,30.03,East,91,3.0,25.0,68,0.00,,,0.00,Wunderground v.1.15,2013-06-03 03:12:00,
2013-06-02 22:13:00,61.4,50.7,30.03,East,90,3.0,-999.0,68,0.00,,,0.00,Wunderground v.1.15,2013-06-03 03:13:00,
2013-06-02 22:18:00,61.4,50.7,30.03,East,90,3.0,-999.0,68,0.00,,,0.00,Wunderground v.1.15,2013-06-03 03:18:00,
2013-06-02 22:22:00,61.2,50.6,30.03,East,86,4.0,4.0,68,0.00,,,0.00,Wunderground v.1.15,2013-06-03 03:22:00,
2013-06-02 22:23:00,61.1,50.8,30.03,East,90,4.0,-999.0,69,0.00,,,0.00,Wunderground v.1.15,2013-06-03 03:23:00,
2013-06-02 22:28:00,61.1,50.8,30.03,East,90,4.0,-999.0,69,0.00,,,0.00,Wunderground v.1.15,2013-06-03 03:28:00,
2013-06-02 22:32:00,61.0,50.8,30.03,East,91,4.0,25.0,69,0.00,,,0.00,Wunderground v.1.15,2013-06-03 03:32:00,
2013-06-02 22:33:00,61.1,50.8,30.03,East,90,4.0,-999.0,69,0.00,,,0.00,Wunderground v.1.15,2013-06-03 03:33:00,
2013-06-02 22:38:00,60.5,50.7,30.03,East,90,4.0,-999.0,70,0.00,,,0.00,Wunderground v.1.15,2013-06-03 03:38:00,
2013-06-02 22:42:00,60.7,50.9,30.03,East,81,4.0,25.0,70,0.00,,,0.00,Wunderground v.1.15,2013-06-03 03:42:00,
2013-06-02 22:43:00,60.5,50.7,30.03,East,90,4.0,-999.0,70,0.00,,,0.00,Wunderground v.1.15,2013-06-03 03:43:00,
2013-06-02 22:48:00,60.5,50.7,30.03,East,90,4.0,-999.0,70,0.00,,,0.00,Wunderground v.1.15,2013-06-03 03:48:00,
2013-06-02 22:52:00,60.3,50.5,30.03,East,91,4.0,4.0,70,0.00,,,0.00,Wunderground v.1.15,2013-06-03 03:52:00,
2013-06-02 22:53:00,60.1,50.7,30.02,East,90,4.0,-999.0,71,0.00,,,0.00,Wunderground v.1.15,2013-06-03 03:53:00,
2013-06-02 22:58:00,60.1,50.7,30.02,East,90,4.0,-999.0,71,0.00,,,0.00,Wunderground v.1.15,2013-06-03 03:58:00,
2013-06-02 23:02:00,60.0,50.6,30.03,East,96,5.0,25.0,71,0.00,,,0.00,Wunderground v.1.15,2013-06-03 04:02:00,
2013-06-02 23:03:00,60.1,50.7,30.02,East,90,4.0,-999.0,71,0.00,,,0.00,Wunderground v.1.15,2013-06-03 04:03:00,
2013-06-02 23:08:00,59.6,50.9,30.02,East,90,4.0,-999.0,73,0.00,,,0.00,Wunderground v.1.15,2013-06-03 04:08:00,
2013-06-02 23:12:00,59.7,50.7,30.02,ESE,110,4.0,25.0,72,0.00,,,0.00,Wunderground v.1.15,2013-06-03 04:12:00,
2013-06-02 23:13:00,59.6,50.9,30.02,East,90,4.0,-999.0,73,0.00,,,0.00,Wunderground v.1.15,2013-06-03 04:13:00,
2013-06-02 23:18:00,59.6,50.9,30.02,East,90,4.0,-999.0,73,0.00,,,0.00,Wunderground v.1.15,2013-06-03 04:18:00,
2013-06-02 23:22:00,59.5,51.2,30.02,ENE,77,5.0,5.0,74,0.00,,,0.00,Wunderground v.1.15,2013-06-03 04:22:00,
2013-06-02 23:23:00,59.4,51.1,30.02,ESE,113,5.0,-999.0,74,0.00,,,0.00,Wunderground v.1.15,2013-06-03 04:23:00,
2013-06-02 23:28:00,59.4,51.1,30.02,ESE,113,5.0,-999.0,74,0.00,,,0.00,Wunderground v.1.15,2013-06-03 04:28:00,
2013-06-02 23:32:00,59.5,51.6,30.02,ESE,120,6.0,25.0,75,0.00,,,0.00,Wunderground v.1.15,2013-06-03 04:32:00,
2013-06-02 23:33:00,59.4,51.1,30.02,ESE,113,5.0,-999.0,74,0.00,,,0.00,Wunderground v.1.15,2013-06-03 04:33:00,
2013-06-02 23:38:00,58.7,51.9,30.02,ESE,113,7.0,-999.0,78,0.00,,,0.00,Wunderground v.1.15,2013-06-03 04:38:00,
2013-06-02 23:42:00,58.8,51.6,30.03,ESE,120,7.0,25.0,77,0.00,,,0.00,Wunderground v.1.15,2013-06-03 04:42:00,
2013-06-02 23:43:00,58.7,51.9,30.02,ESE,113,7.0,-999.0,78,0.00,,,0.00,Wunderground v.1.15,2013-06-03 04:43:00,
2013-06-02 23:48:00,58.7,51.9,30.02,ESE,113,7.0,-999.0,78,0.00,,,0.00,Wunderground v.1.15,2013-06-03 04:48:00,
2013-06-02 23:53:00,57.8,51.7,30.02,SE,135,6.0,-999.0,80,0.00,,,0.00,Wunderground v.1.15,2013-06-03 04:53:00,
2013-06-02 23:58:00,57.8,51.7,30.02,SE,135,6.0,-999.0,80,0.00,,,0.00,Wunderground v.1.15,2013-06-03 04:58:00,